{"data":{"norad_id":67195,"epoch":"2026-05-24T22:57:48.172320Z","epoch_age_seconds":78524,"freshness":"FRESH","line1":"1 67195U 25304D   26144.95680755  .00002831  00000+0  24490-3 0  9999","line2":"2 67195  70.0021 342.3645 0002826 266.1207  93.9629 14.98336540 25300","mean_motion":14.9833654,"eccentricity":0.0002826,"inclination_deg":70.0021,"raan_deg":342.3645,"arg_perigee_deg":266.1207,"mean_anomaly_deg":93.9629,"bstar":0.0002449,"rev_number":2530,"period_min":96.106579633972,"perigee_km":570.07154781188,"apogee_km":573.99978540305,"semimajor_km":6950.1726666075,"source":"CELESTRAK","updated_at":"2026-05-25T13:38:21.486917Z"}}